CAPE
28 19 23 16 22 26 22 19 10 0 0 0 0 0 0 0 0 0 0 0 0 0 0 0 0 0 0 0 0 0 0 0 0 0 0 0 0 0 0 0 0 0 0 0 0 0 0 0 0 0 0 0 0 0
15 29 34 17 11 11 9 2 0 0 0 0 0 0 0 0 0 0 0 0 0 0 0 0 0 0 0 0 0 0 0 0 0 0 0 0 0 0 0 0 0 0 0 0 0 0 0 0 0 0 0 0 0 0
23 23 43 46 47 33 25 10 2 0 0 0 0 0 0 0 0 0 0 0 0 0 0 0 0 0 0 0 0 0 0 0 0 0 0 0 11 0 0 0 0 0 0 0 0 0 0 0 0 0 0 0 0 0
52 56 37 17 14 19 27 32 20 3 0 0 0 0 0 0 0 0 0 0 0 0 1 0 0 0 0 0 0 0 0 0 0 0 4 3 11 0 0 0 0 0 0 0 0 0 0 0 0 0 0 0 0 0
26 42 37 23 11 8 8 11 4 3 6 2 0 0 0 0 0 0 0 0 0 0 1 0 0 0 0 0 0 0 0 0 0 0 3 4 0 0 0 0 0 0 0 0 0 0 0 0 0 0 0 0 0 0
1 0 17 14 12 4 0 0 0 0 0 0 0 0 0 0 0 0 0 0 0 0 0 3 0 0 0 0 0 0 0 0 0 0 1 0 0 0 1 0 0 0 0 0 0 0 0 0 0 0 0 0 0 0
28 17 14 2 0 0 0 0 0 0 0 0 0 0 0 0 0 0 0 0 0 0 2 7 6 0 0 0 0 0 0 0 0 0 3 0 0 0 1 0 0 0 0 0 0 0 0 0 0 0 0 0 0 1
22 11 6 0 0 0 0 0 0 0 0 0 0 0 0 0 0 0 0 0 0 0 0 10 4 7 0 0 2 0 0 0 2 0 0 0 0 0 3 0 0 0 0 0 0 0 0 0 0 0 0 1 3 5
7 0 0 0 0 0 0 0 0 0 0 0 0 0 0 0 0 0 0 0 0 0 4 0 0 5 0 1 0 0 0 25 0 5 0 0 1 1 0 0 0 0 0 0 0 0 0 1 0 1 2 3 3 5
0 0 0 0 0 0 0 0 0 0 0 0 0 0 2 3 0 0 0 0 1 0 3 5 1 10 5 3 5 1 2 1 3 0 0 3 0 0 0 0 0 0 0 0 1 0 0 1 1 1 2 3 4 8
0 0 0 0 0 0 0 0 0 0 0 0 0 4 0 0 0 0 3 1 0 0 4 6 3 8 0 7 4 0 4 0 0 5 1 0 0 0 0 0 0 0 0 0 0 0 0 0 0 1 3 4 5 4
0 0 0 0 0 0 0 0 0 0 0 0 0 0 0 0 0 0 0 0 0 0 7 14 13 12 6 0 3 2 2 1 0 5 7 0 0 0 0 0 0 0 2 0 0 1 0 0 0 2 7 8 3 4
0 0 0 0 0 0 0 0 0 0 0 0 0 0 0 0 0 0 0 0 2 1 11 20 10 20 4 4 3 4 2 4 7 7 1 0 0 0 0 0 0 1 0 0 1 2 2 2 1 1 3 3 1 2
0 0 0 0 0 0 0 0 0 0 0 0 0 0 0 0 0 0 0 2 2 10 18 23 8 17 20 11 4 2 5 6 8 5 0 4 0 0 0 0 0 3 1 0 1 1 1 0 0 1 0 0 0 1
0 0 0 0 0 0 0 0 0 0 0 0 0 0 0 1 3 5 8 9 9 22 14 22 19 18 9 1 2 6 5 4 3 0 4 1 0 0 1 0 1 2 2 1 2 1 0 0 0 1 1 0 0 1
0 0 0 0 0 0 0 0 0 0 0 0 0 0 1 6 3 4 15 4 13 23 11 7 3 3 6 9 7 3 0 0 5 19 14 1 3 2 1 3 2 1 1 1 1 0 0 0 0 0 1 1 0 0
0 0 0 0 0 0 0 0 0 0 0 0 0 0 1 10 11 5 12 9 9 26 22 11 3 2 2 9 6 5 6 7 6 5 4 4 1 2 1 2 0 0 0 0 0 0 0 0 0 0 0 0 0 0
2 0 0 0 0 0 0 0 0 0 0 0 0 0 0 2 11 8 3 5 21 23 13 11 4 5 6 3 6 12 14 6 5 5 4 2 3 1 1 2 0 0 1 1 0 0 0 0 0 0 0 0 0 0
6 1 0 0 0 0 0 0 0 0 0 0 0 0 0 0 0 0 0 0 1 14 17 6 3 6 17 22 4 17 7 7 4 1 0 0 0 1 0 0 1 0 1 2 1 1 0 0 0 0 0 0 0 0
0 0 0 0 0 0 0 0 0 0 0 0 0 0 0 0 0 0 0 0 0 0 6 1 5 26 56 30 31 28 32 13 0 0 0 1 0 0 1 1 1 0 0 1 3 0 2 1 0 0 0 0 0 0
0 0 0 0 0 0 0 0 0 1 0 0 0 0 0 0 0 0 0 0 0 0 1 6 3 15 48 74 61 89 63 33 7 0 0 1 7 3 4 3 2 0 1 2 5 4 1 1 1 1 4 13 3 3
0 0 0 0 0 0 0 0 1 1 0 1 0 0 0 0 0 0 0 0 0 0 0 0 0 0 0 0 0 0 0 0 0 0 0 0 3 3 3 6 5 5 2 2 2 7 6 1 1 2 8 22 5 8
0 0 0 0 0 0 0 0 0 0 0 0 0 0 0 0 0 0 1 3 0 0 0 0 0 0 0 0 0 0 0 0 0 0 0 0 8 16 5 8 3 4 3 1 1 4 7 1 1 16 12 11 12 13
0 0 0 0 0 0 0 0 0 0 0 0 0 0 0 0 0 1 0 0 0 0 0 0 0 0 0 0 0 1 33 47 40 17 0 1 0 0 10 8 6 4 0 1 4 5 4 3 4 8 15 16 21 8
0 0 0 0 0 0 1 3 0 0 0 0 0 0 0 0 0 0 0 0 0 6 17 15 19 5 4 7 5 29 32 12 12 13 19 20 5 0 12 9 5 8 2 1 6 7 12 8 2 4 9 13 7 8
0 0 0 0 1 0 1 1 1 1 1 0 0 0 0 1 0 0 0 10 26 15 20 25 12 5 6 11 6 6 5 3 22 29 17 31 43 39 26 5 5 3 3 0 0 2 5 7 5 1 3 6 5 10
0 0 0 0 0 0 2 1 0 1 0 0 0 1 0 0 0 0 10 14 7 0 0 0 0 0 0 2 11 4 2 4 13 9 11 28 44 45 55 36 9 4 0 0 0 1 2 3 5 7 4 14 12 9
0 0 0 0 0 0 0 0 0 0 0 0 0 0 0 0 0 1 12 0 0 0 0 0 0 0 0 0 0 0 0 0 0 0 0 2 1 5 1 4 2 0 0 6 0 1 1 4 3 5 6 9 9 10
0 0 0 0 0 0 0 0 0 0 0 0 4 1 0 0 1 1 0 0 0 0 0 0 0 0 0 0 0 0 0 1 0 0 0 3 4 7 8 10 5 1 0 1 0 0 2 1 4 6 7 8 9 11
0 0 0 0 0 0 0 0 0 0 0 0 0 0 0 0 0 0 0 0 0 0 0 1 0 0 0 0 1 0 1 2 5 5 5 4 3 7 14 12 8 18 11 12 4 2 0 0 1 2 3 5 6 7
0 1 0 0 0 0 0 0 0 0 0 0 0 0 0 0 0 0 0 0 0 0 0 0 0 5 0 0 2 2 2 14 2 3 5 7 18 34 25 20 17 19 7 3 2 3 3 3 3 3 4 3 3 3
7 3 0 0 0 0 0 0 0 0 0 0 0 0 0 0 0 0 0 0 0 0 0 0 0 0 3 1 2 4 0 3 6 4 12 4 30 34 17 6 8 6 6 4 3 4 4 4 4 5 6 5 4 3
0 0 0 0 0 0 0 0 0 0 0 0 0 0 0 0 0 0 0 4 2 3 3 4 6 5 3 0 3 1 1 3 0 0 0 0 0 6 17 17 14 11 5 6 6 6 9 8 5 4 4 3 3 2
CIN
-0 -0 -0 -0 -0 -0 -0 -0 -0 -0 -0 -0 -0 -0 -0 -0 -0 -0 -0 -0 -0 -0 -0 -0 -0 -0 -0 -0 -0 -0 -0 -0 -0 -0 -0 -0 -0 -0 -0 -0 -0 -0 -0 -0 -0 -0 -0 -0 -0 -0 -0 -0 -0 -0
-0 -0 -0 -0 -0 -0 -0 -1 -0 -0 -0 -0 -0 -0 -0 -0 -0 -0 -0 -0 -0 -0 -0 -0 -0 -0 -0 -0 -0 -0 -0 -0 -0 -0 -0 -0 -0 -0 -0 -0 -0 -0 -0 -0 -0 -0 -0 -0 -0 -0 -0 -0 -0 -0
-0 -0 -0 -0 -0 -0 -0 -0 -0 -0 -0 -0 -0 -0 -0 -0 -0 -0 -0 -0 -0 -0 -0 -0 -0 -0 -0 -0 -0 -0 -0 -0 -0 -0 -0 -0 -21 -0 -0 -0 -0 -0 -0 -0 -0 -0 -0 -0 -0 -0 -0 -0 -0 -0
-0 -0 -1 -11 -9 -0 -1 -0 -0 -0 -0 -0 -0 -0 -0 -0 -0 -0 -0 -0 -0 -0 -0 -0 -0 -0 -0 -0 -0 -0 -0 -0 -0 -0 -0 -0 -4 -0 -0 -0 -0 -0 -0 -0 -0 -0 -0 -0 -0 -0 -0 -0 -0 -0
-0 -0 -0 -8 -5 -15 -15 -8 -5 -0 -0 -0 -0 -0 -0 -0 -0 -0 -0 -0 -0 -0 -0 -0 -0 -0 -0 -0 -0 -0 -0 -0 -0 -0 -0 -9 -0 -0 -0 -0 -0 -0 -0 -0 -0 -0 -0 -0 -0 -0 -0 -0 -0 -0
-2 -0 -0 -0 -0 -9 -0 -1 -0 -0 -0 -0 -0 -0 -0 -0 -0 -0 -0 -0 -0 -0 -0 -0 -0 -0 -0 -0 -0 -0 -0 -0 -0 -0 -0 -0 -0 -0 -0 -0 -0 -0 -0 -0 -0 -0 -0 -0 -0 -0 -0 -0 -0 -0
-0 -2 -0 -0 -0 -0 -0 -0 -0 -0 -0 -0 -0 -0 -0 -0 -0 -0 -0 -0 -0 -0 -0 -0 -0 -0 -0 -0 -0 -0 -0 -0 -0 -0 -0 -0 -0 -0 -0 -0 -0 -0 -0 -0 -0 -0 -0 -0 -0 -0 -0 -0 -0 -0
-0 -0 -0 -1 -0 -0 -0 -0 -0 -0 -0 -0 -0 -0 -0 -0 -0 -0 -0 -0 -0 -0 -0 -0 -0 -0 -0 -0 -0 -0 -0 -0 -0 -0 -0 -0 -0 -0 -0 -0 -0 -0 -0 -0 -0 -0 -0 -0 -0 -0 -0 -0 -0 -0
-0 -0 -0 -0 -0 -0 -0 -0 -0 -0 -0 -0 -0 -0 -0 -0 -0 -0 -0 -0 -0 -0 -0 -0 -0 -0 -0 -0 -0 -0 -0 -0 -0 -0 -0 -0 -0 -0 -0 -0 -0 -0 -0 -0 -0 -0 -0 -0 -0 -0 -0 -0 -0 -0
-0 -0 -0 -0 -0 -0 -0 -0 -0 -0 -0 -0 -0 -0 -0 -0 -0 -0 -0 -0 -0 -0 -0 -0 -0 -0 -0 -0 -0 -0 -0 -0 -0 -0 -0 -0 -0 -0 -0 -0 -0 -0 -0 -0 -0 -0 -0 -0 -0 -0 -0 -0 -0 -0
-0 -0 -0 -0 -0 -0 -0 -0 -0 -0 -0 -0 -0 -0 -0 -0 -0 -0 -0 -0 -0 -0 -0 -0 -0 -0 -0 -0 -0 -0 -0 -0 -0 -0 -0 -0 -0 -0 -0 -0 -0 -0 -0 -0 -0 -0 -0 -0 -0 -0 -0 -0 -0 -0
-0 -0 -0 -0 -0 -0 -0 -0 -0 -0 -0 -0 -0 -0 -0 -0 -0 -0 -0 -0 -0 -0 -0 -0 -0 -0 -0 -0 -0 -0 -0 -0 -0 -0 -0 -0 -0 -0 -0 -0 -0 -0 -0 -0 -0 -0 -0 -0 -0 -0 -0 -0 -0 -0
-0 -0 -0 -0 -0 -0 -0 -0 -0 -0 -0 -0 -0 -0 -0 -0 -0 -0 -0 -0 -0 -0 -0 -0 -0 -0 -0 -0 -0 -0 -0 -0 -0 -0 -0 -0 -0 -0 -0 -0 -0 -0 -0 -0 -0 -0 -0 -0 -0 -0 -0 -0 -0 -0
-0 -0 -0 -0 -0 -0 -0 -0 -0 -0 -0 -0 -0 -0 -0 -0 -0 -0 -0 -0 -0 -0 -0 -0 -0 -0 -0 -0 -0 -0 -0 -0 -0 -0 -0 -0 -0 -0 -0 -0 -0 -0 -0 -0 -0 -0 -0 -0 -0 -0 -0 -0 -0 -0
-0 -0 -0 -0 -0 -0 -0 -0 -0 -0 -0 -0 -0 -0 -0 -0 -0 -0 -0 -0 -0 -0 -0 -0 -0 -0 -0 -0 -0 -0 -0 -0 -0 -0 -0 -0 -0 -0 -0 -0 -0 -0 -0 -0 -0 -0 -0 -0 -0 -0 -0 -0 -0 -0
-0 -0 -0 -0 -0 -0 -0 -0 -0 -0 -0 -0 -0 -0 -0 -0 -0 -2 -2 -0 -0 -0 -0 -0 -0 -0 -0 -0 -0 -0 -0 -0 -0 -0 -0 -0 -0 -0 -0 -0 -0 -0 -0 -0 -0 -0 -0 -0 -0 -0 -0 -0 -0 -0
-0 -0 -0 -0 -0 -0 -0 -0 -0 -0 -0 -0 -0 -0 -0 -0 -0 -0 -0 -1 -0 -0 -0 -0 -0 -0 -0 -0 -0 -0 -0 -0 -0 -0 -0 -0 -0 -0 -0 -0 -0 -0 -0 -0 -0 -0 -0 -0 -0 -0 -0 -0 -0 -0
-0 -0 -0 -0 -0 -0 -0 -0 -0 -0 -0 -0 -0 -0 -0 -0 -0 -0 -0 -0 -0 -0 -0 -0 -0 -0 -0 -0 -0 -0 -0 -0 -0 -0 -0 -0 -0 -0 -0 -0 -0 -0 -0 -0 -0 -0 -0 -0 -0 -0 -0 -0 -0 -0
-0 -0 -0 -0 -0 -0 -0 -0 -0 -0 -0 -0 -0 -0 -0 -0 -0 -0 -0 -0 -0 -1 -0 -0 -0 -0 -0 -0 -0 -0 -0 -0 -0 -0 -0 -0 -0 -0 -0 -0 -0 -0 -0 -0 -0 -0 -0 -0 -0 -0 -0 -0 -0 -0
-0 -0 -0 -0 -0 -0 -0 -0 -0 -0 -0 -0 -0 -0 -0 -0 -0 -0 -0 -0 -0 -0 -0 -0 -0 -0 -0 -10 -9 -17 -8 -0 -0 -0 -0 -9 -0 -0 -0 -0 -0 -0 -0 -0 -0 -0 -0 -0 -0 -0 -0 -0 -0 -0
-0 -0 -0 -0 -0 -0 -0 -0 -0 -0 -0 -0 -0 -0 -0 -0 -0 -0 -0 -0 -0 -0 -0 -0 -0 -4 -0 -0 -0 -0 -0 -0 -0 -0 -0 -18 -14 -34 -0 -0 -0 -0 -0 -0 -0 -0 -0 -0 -0 -0 -0 -0 -0 -0
-0 -0 -0 -0 -0 -0 -0 -0 -0 -0 -0 -0 -0 -0 -0 -0 -0 -0 -0 -0 -0 -0 -0 -0 -0 -0 -1 -0 -2 -0 -0 -0 -0 -0 -0 -0 -23 -0 -0 -0 -0 -0 -0 -0 -0 -0 -0 -0 -0 -0 -0 -0 -0 -0
-0 -0 -0 -0 -0 -0 -0 -0 -0 -0 -0 -0 -0 -0 -0 -0 -0 -0 -0 -0 -0 -0 -0 -0 -0 -0 -0 -0 -0 -0 -0 -0 -0 -0 -0 -0 -4 -3 -0 -0 -0 -0 -0 -0 -0 -0 -0 -0 -0 -0 -0 -0 -0 -0
-0 -0 -0 -0 -0 -0 -0 -0 -0 -0 -0 -0 -0 -0 -0 -0 -0 -0 -0 -0 -0 -0 -0 -0 -0 -0 -0 -0 -0 -0 -0 -0 -0 -2 -0 -0 -0 -0 -9 -0 -0 -0 -0 -0 -0 -0 -0 -0 -0 -0 -0 -0 -0 -0
-0 -0 -0 -0 -0 -0 -0 -0 -0 -0 -0 -0 -0 -0 -0 -0 -0 -0 -0 -0 -0 -0 -0 -0 -0 -0 -0 -0 -0 -0 -0 -0 -0 -0 -0 -0 -0 -0 -2 -0 -0 -0 -0 -0 -0 -0 -0 -0 -0 -0 -0 -0 -0 -0
-0 -0 -0 -0 -0 -0 -0 -0 -0 -0 -0 -0 -0 -0 -0 -0 -0 -0 -0 -0 -0 -0 -1 -0 -0 -0 -0 -0 -0 -0 -0 -0 -3 -0 -0 -0 -0 -0 -0 -0 -0 -0 -0 -0 -0 -0 -0 -0 -0 -0 -0 -0 -0 -0
-0 -0 -0 -0 -0 -0 -0 -0 -0 -0 -0 -0 -0 -1 -0 -0 -0 -0 -0 -0 -0 -0 -0 -0 -0 -0 -0 -1 -0 -1 -0 -0 -0 -0 -1 -0 -0 -0 -0 -0 -0 -0 -0 -0 -0 -0 -0 -0 -0 -0 -0 -0 -0 -0
-0 -0 -0 -0 -0 -0 -0 -0 -0 -0 -0 -0 -0 -0 -0 -0 -0 -0 -0 -0 -0 -0 -0 -0 -0 -0 -0 -0 -0 -0 -0 -0 -0 -0 -0 -3 -0 -0 -0 -0 -0 -0 -0 -0 -0 -0 -0 -0 -0 -0 -0 -0 -0 -0
-0 -0 -0 -0 -0 -0 -0 -0 -0 -0 -0 -0 -0 -0 -0 -0 -0 -0 -0 -0 -0 -0 -0 -0 -0 -0 -0 -0 -0 -0 -0 -0 -0 -0 -0 -16 -0 -0 -0 -0 -0 -0 -0 -0 -0 -0 -0 -0 -0 -0 -0 -0 -0 -0
-0 -0 -0 -0 -0 -0 -0 -0 -0 -0 -0 -0 -0 -0 -0 -0 -0 -0 -0 -0 -0 -0 -0 -1 -0 -0 -0 -0 -0 -0 -0 -0 -0 -0 -0 -0 -0 -0 -0 -0 -0 -0 -0 -0 -0 -0 -0 -0 -0 -0 -0 -0 -0 -0
-0 -0 -0 -0 -0 -0 -0 -0 -0 -0 -0 -0 -0 -0 -0 -0 -0 -0 -0 -0 -0 -0 -0 -0 -0 -3 -0 -0 -0 -0 -0 -0 -0 -0 -1 -0 -0 -0 -0 -0 -0 -0 -0 -0 -0 -0 -0 -0 -0 -0 -0 -0 -0 -0
-0 -0 -0 -0 -0 -0 -0 -0 -0 -0 -0 -0 -0 -0 -0 -0 -0 -0 -0 -0 -0 -0 -0 -0 -0 -0 -0 -0 -0 -0 -0 -0 -0 -0 -0 -0 -0 -0 -0 -0 -0 -0 -0 -0 -0 -0 -0 -0 -0 -0 -0 -0 -0 -0
-0 -0 -0 -0 -0 -0 -0 -0 -0 -0 -0 -0 -0 -0 -0 -0 -0 -0 -0 -0 -0 -0 -0 -0 -0 -0 -0 -0 -0 -0 -0 -0 -0 -0 -0 -0 -0 -0 -0 -0 -0 -0 -0 -0 -0 -0 -0 -0 -0 -0 -0 -0 -0 -0
Wind_Speed
20 18 18 18 21 20 21 20 20 18 16 17 16 13 14 14 9 4 5 5 3 5 5 4 3 4 4 4 6 9 6 2 3 6 4 4 4 6 4 4 5 8 8 5 5 5 8 10 8 6 5 4 10 7
20 18 17 15 17 19 20 19 19 18 16 17 17 15 13 11 10 5 6 3 8 9 5 5 9 10 6 5 5 5 2 6 6 4 2 3 3 3 5 4 5 6 5 2 8 3 5 12 3 2 1 8 7 7
21 20 14 15 17 20 21 19 19 15 14 14 16 15 13 11 8 6 6 3 6 6 5 2 4 6 9 6 5 3 2 4 4 3 4 2 3 3 5 5 5 5 5 5 2 5 9 8 10 5 5 5 7 6
17 19 14 15 15 17 19 19 21 19 14 11 13 14 15 14 14 9 5 2 4 6 6 4 4 5 10 5 0 3 5 6 6 2 3 3 3 3 2 1 5 2 8 8 9 8 5 10 11 9 7 8 8 8
16 17 16 14 12 14 17 19 20 20 20 17 15 17 18 21 22 13 6 4 4 5 5 5 4 7 9 7 7 5 7 6 3 3 2 2 3 4 1 1 4 7 7 6 4 3 2 4 1 10 11 11 11 10
14 15 13 14 14 12 15 15 16 19 22 20 19 21 18 11 3 3 5 5 6 4 7 4 1 4 7 8 11 10 5 4 2 3 3 3 3 3 4 4 6 7 6 5 2 3 4 3 3 11 11 12 10 8
15 15 13 13 14 15 16 17 16 16 20 20 18 17 16 13 7 6 3 3 4 2 6 6 4 3 4 2 3 4 5 4 3 2 2 2 3 3 2 4 6 1 4 4 3 5 3 7 4 9 10 10 9 8
15 16 14 14 14 15 16 17 19 20 21 21 21 21 22 24 17 6 6 7 2 6 5 5 4 4 4 2 3 4 2 2 5 2 2 2 3 1 5 11 4 3 1 2 4 1 1 7 11 10 10 11 10 9
16 15 15 14 13 13 14 14 14 14 14 13 11 8 6 7 4 3 9 5 6 6 5 3 5 5 2 2 2 3 3 2 1 1 2 2 3 6 4 5 2 1 1 2 4 3 7 8 10 11 11 10 9 9
14 13 13 13 12 11 11 11 10 11 11 7 4 5 5 3 6 6 0 4 7 5 5 4 2 5 2 2 3 2 1 1 2 3 2 2 5 8 7 6 6 4 3 9 6 6 8 10 11 12 11 9 8 9
15 12 11 10 11 10 10 9 7 6 4 3 4 4 3 2 1 4 4 4 2 4 2 3 3 6 1 3 4 2 2 1 3 4 3 2 3 1 2 4 4 4 7 9 1 1 9 8 11 11 9 8 8 10
13 13 13 13 12 10 7 5 4 4 3 4 8 5 2 3 3 6 3 3 1 4 3 4 4 4 4 2 3 1 2 2 2 3 2 3 2 2 1 2 3 3 6 8 3 5 4 7 9 8 8 8 9 9
13 14 15 15 15 15 15 16 17 15 6 3 4 5 1 3 5 3 4 3 4 4 4 6 5 3 3 2 4 3 3 2 3 2 3 2 2 1 1 1 3 3 7 7 6 5 6 7 9 9 10 8 10 10
13 14 14 15 15 13 11 8 6 3 3 5 4 6 4 3 4 3 5 6 4 6 9 7 4 3 2 3 2 4 2 3 3 4 3 2 6 5 2 4 6 6 6 7 7 7 8 9 9 9 8 9 10 10
16 15 13 13 12 12 11 11 7 4 4 6 5 5 5 4 5 5 5 6 5 7 7 5 4 2 3 4 2 3 3 4 5 3 3 4 7 2 2 4 5 6 6 7 8 8 9 9 9 9 8 8 9 10
14 11 8 11 13 13 9 4 5 3 4 4 5 5 4 7 4 4 6 6 4 6 4 1 3 3 3 2 4 6 4 4 3 4 5 6 6 2 2 4 5 5 6 6 6 9 9 9 9 10 10 9 9 10
9 4 4 6 7 11 15 4 4 6 4 4 4 5 4 6 5 5 4 5 3 4 2 0 4 2 3 3 4 3 1 4 3 4 4 6 5 2 2 4 5 5 6 6 7 8 8 9 10 11 11 11 11 10
5 8 5 6 5 5 4 7 4 5 6 4 4 4 5 4 5 5 3 3 1 1 2 2 1 3 2 3 2 4 4 3 3 4 4 5 4 2 3 5 5 5 5 6 6 7 8 9 10 8 10 12 11 11
10 8 11 13 7 5 4 5 4 4 5 4 4 3 4 4 4 4 4 4 4 3 2 1 2 3 2 2 4 6 4 2 2 3 4 3 2 1 4 5 5 5 5 7 8 6 6 9 7 7 8 10 8 9
20 15 12 14 6 4 5 4 3 3 3 3 2 3 3 3 3 3 3 3 2 1 2 3 3 0 0 3 3 3 3 3 0 2 2 1 3 4 6 6 5 7 6 5 6 5 6 7 6 7 8 9 9 10
8 6 11 5 4 6 4 2 4 3 3 3 3 2 3 2 2 3 3 3 3 3 4 4 3 1 4 3 3 4 4 4 4 4 4 3 3 5 4 5 7 6 6 6 7 8 8 7 7 7 8 8 8 7
3 6 3 5 4 4 4 4 3 2 1 3 2 2 2 2 2 2 3 4 3 4 5 5 6 6 7 8 6 8 8 9 8 6 6 3 5 5 5 6 6 7 7 7 7 8 8 8 7 8 8 7 8 8
6 3 4 3 5 5 3 2 2 2 3 3 2 3 2 1 1 2 2 3 2 1 1 2 5 6 7 8 7 7 8 8 8 8 8 8 8 7 5 6 6 6 7 7 7 7 8 7 8 7 8 8 8 8
4 5 4 4 4 4 2 2 2 2 3 3 3 2 2 1 1 3 3 2 1 1 2 4 4 5 4 5 4 4 4 5 7 9 9 9 9 8 8 7 7 7 6 5 7 7 7 7 9 10 9 9 9 10
5 4 2 4 2 4 3 4 3 3 3 3 4 2 2 2 2 3 4 2 1 2 4 3 3 2 3 4 5 5 7 7 8 10 10 8 9 8 7 6 6 7 7 6 6 7 7 6 8 10 11 11 13 14
5 2 2 3 3 3 4 4 5 4 3 4 4 2 2 2 3 4 2 4 4 3 2 3 4 4 4 4 4 5 6 5 5 7 7 6 6 7 7 6 6 6 7 5 6 9 9 9 10 13 13 15 15 13
4 3 3 1 3 4 3 2 4 3 4 4 3 4 4 4 5 3 4 3 3 2 2 2 3 4 5 6 5 4 6 6 5 6 7 5 4 4 5 6 7 4 8 10 9 9 10 11 11 11 12 10 12 13
2 4 5 5 3 2 3 3 4 5 3 3 3 5 4 4 3 3 4 3 2 3 4 3 3 4 5 5 6 6 6 5 7 7 5 2 3 4 4 3 3 4 2 4 8 8 9 9 11 11 12 11 10 11
2 4 4 3 2 3 4 4 4 3 1 4 3 4 3 2 1 3 2 1 2 3 5 6 6 3 5 4 4 4 4 5 6 7 7 3 1 3 5 5 3 3 2 3 3 5 8 8 8 9 10 9 8 8
4 5 3 3 4 5 3 3 1 1 1 2 2 2 3 2 2 1 3 5 5 5 5 5 5 4 6 5 6 5 3 3 3 3 3 3 3 5 5 4 4 4 3 2 2 2 3 4 4 4 6 6 6 7
5 4 3 3 3 1 1 2 2 2 2 2 0 4 7 5 3 5 8 7 7 6 6 6 6 5 5 6 5 6 3 2 1 1 3 5 4 3 4 4 3 4 4 3 3 3 4 4 5 7 8 10 10 10
3 5 3 4 2 2 1 1 1 2 2 3 5 3 2 4 7 4 3 4 4 6 6 5 6 6 3 3 3 3 2 1 2 3 5 5 4 4 5 4 3 3 4 4 4 4 6 7 6 8 8 11 12 13
3 2 1 1 1 1 2 2 0 3 2 2 1 2 3 4 5 2 3 3 3 3 4 4 4 4 4 2 1 1 2 1 3 4 6 7 8 6 4 3 3 3 5 5 5 5 7 9 9 10 10 10 11 12
Wind_Direction
90 91 99 114 118 119 121 115 104 104 106 123 132 133 117 116 123 88 92 12 58 89 72 25 32 129 134 170 149 137 131 175 166 193 181 188 213 196 202 157 183 185 179 197 202 227 256 154 146 225 55 140 151 162
89 83 104 111 118 120 112 108 99 93 92 106 119 119 113 113 119 104 87 62 58 74 87 63 72 42 12 25 118 178 45 146 164 168 200 141 152 174 205 212 191 218 235 213 219 235 106 185 13 88 149 162 167 164
111 111 106 106 102 107 120 120 109 100 92 92 100 109 105 85 77 86 112 120 85 100 94 114 54 26 27 358 326 143 170 126 152 7 128 120 159 188 183 221 193 224 196 238 235 210 216 202 207 206 178 169 147 147
96 105 100 85 82 93 95 108 119 118 118 105 93 90 87 81 73 77 86 5 88 119 108 81 9 36 340 334 275 2 109 108 111 144 108 143 134 215 197 44 237 45 163 223 249 257 244 236 226 193 165 143 140 143
95 100 99 97 89 88 93 96 103 111 121 126 122 112 105 98 91 81 77 34 355 104 118 115 138 31 24 46 74 98 132 130 148 115 99 111 101 153 99 215 233 188 213 210 270 33 286 69 182 166 168 166 162 158
84 81 84 88 89 85 87 96 103 107 108 109 113 113 116 120 176 133 48 22 17 58 107 115 74 41 40 63 71 63 52 57 64 89 95 92 66 235 176 211 259 242 254 283 290 89 93 75 139 166 169 166 161 160
102 91 84 85 88 89 89 89 94 99 101 103 103 103 104 100 73 70 94 52 352 109 96 114 119 73 3 25 57 60 59 61 37 93 69 130 139 194 179 220 224 237 240 194 182 136 148 177 164 162 155 149 143 136
99 90 82 80 79 79 81 91 95 97 97 98 99 95 94 103 121 71 29 19 294 91 73 102 98 150 358 96 102 355 62 70 28 90 160 158 137 227 247 246 276 293 329 200 175 153 72 131 138 150 150 145 145 147
98 93 88 85 82 84 85 86 90 89 94 100 93 118 77 43 60 68 341 316 53 55 102 106 142 128 126 82 60 73 355 69 21 129 138 231 170 223 270 325 343 5 238 300 151 143 134 143 153 157 159 162 163 154
92 90 90 89 88 87 90 89 95 97 103 105 60 49 59 51 324 249 85 36 28 24 33 69 126 116 151 143 107 128 16 115 189 102 140 225 252 279 290 261 269 292 205 143 139 169 163 168 172 174 174 174 160 165
106 100 91 89 95 95 82 76 84 110 131 47 63 67 79 330 110 43 67 52 121 92 68 88 86 124 80 119 109 6 130 177 211 113 253 217 250 191 172 309 301 289 205 187 175 167 179 184 177 174 170 164 150 156
104 89 83 83 83 79 71 87 92 57 34 73 95 97 100 41 74 82 65 133 57 105 131 127 110 89 100 94 105 90 107 210 192 133 218 234 215 198 292 333 335 306 168 166 166 145 172 168 167 156 151 147 149 143
111 98 89 84 78 71 72 75 85 116 160 101 78 74 33 7 66 87 139 110 117 132 140 142 110 87 107 88 82 176 175 147 134 217 239 254 59 22 17 105 64 128 148 135 110 92 92 91 95 125 137 133 139 137
96 84 72 67 67 67 65 75 109 101 47 58 55 60 36 72 69 55 80 93 86 120 132 125 92 101 113 123 138 167 80 164 204 220 215 91 25 354 120 127 141 149 145 137 132 132 129 125 118 118 129 142 137 142
99 85 73 54 52 45 43 40 38 38 46 57 39 56 56 85 75 78 83 97 93 119 128 122 105 156 110 123 198 133 177 227 230 207 96 25 359 6 143 172 153 151 147 149 144 140 132 131 132 125 132 143 136 139
99 69 48 54 49 37 20 33 33 58 59 59 63 103 119 113 104 97 103 110 140 127 139 100 113 147 142 150 184 207 206 218 116 35 355 339 8 13 184 167 164 155 161 155 152 147 148 145 152 143 146 143 146 151
78 82 136 82 66 52 31 57 37 46 59 63 75 59 90 98 103 96 98 108 133 173 84 80 158 126 110 207 211 198 303 37 344 347 343 345 356 11 139 142 144 161 165 162 155 159 155 159 146 151 159 154 160 156
88 125 98 44 26 39 40 27 59 50 66 57 83 71 65 58 101 95 98 92 124 91 160 78 118 202 197 222 171 110 100 88 62 24 2 356 20 71 144 156 162 182 182 172 165 166 167 168 175 176 164 160 158 160
116 101 69 53 58 81 60 39 2 83 69 79 88 70 57 80 76 81 88 74 60 43 107 116 184 216 214 73 130 131 120 117 85 26 345 2 335 195 165 156 163 176 190 183 185 185 184 192 192 180 169 172 175 172
82 62 58 49 46 77 77 52 338 67 86 77 114 101 81 80 88 92 109 100 86 102 167 197 241 357 52 124 133 163 164 178 34 19 21 258 177 199 207 184 184 176 172 192 202 195 190 192 196 190 183 188 186 184
85 17 35 39 49 53 75 60 61 41 86 90 87 108 102 148 161 186 210 176 200 211 220 213 243 208 162 199 227 229 196 211 261 281 287 269 196 218 212 205 182 176 182 184 208 197 212 203 190 193 191 193 199 194
73 34 66 33 67 64 76 31 72 87 116 92 127 117 119 141 175 172 130 200 240 242 236 252 253 264 264 252 250 255 270 274 258 266 252 245 228 218 216 206 199 203 195 194 201 213 207 204 192 187 190 193 196 194
107 52 61 59 79 54 64 303 93 89 101 112 141 150 166 192 123 157 241 225 252 234 274 305 302 296 282 281 287 278 270 264 271 271 262 255 248 244 231 207 203 207 208 204 202 208 212 204 179 181 186 188 193 197
45 54 52 60 60 91 101 97 102 123 113 160 141 167 182 189 154 234 244 245 202 61 344 349 318 303 279 243 257 295 316 313 293 278 264 251 246 241 230 222 209 209 207 191 195 205 206 200 196 190 190 190 198 202
79 29 49 78 76 114 121 132 146 144 149 176 154 197 171 196 221 245 238 165 308 53 49 22 46 13 324 319 305 307 343 336 304 286 275 256 250 245 234 229 218 213 193 167 193 198 193 190 202 203 198 197 200 202
84 57 77 119 143 144 149 146 170 165 143 169 184 133 169 211 231 238 203 151 121 86 34 359 355 343 344 345 323 310 309 310 290 279 279 274 260 254 249 230 227 222 202 171 173 194 193 189 204 210 210 207 208 202
112 137 138 76 135 134 115 111 147 139 174 174 166 169 184 224 228 212 153 134 128 47 346 319 305 316 324 323 315 298 297 294 275 287 302 298 293 283 266 252 251 263 180 181 191 196 199 197 201 206 214 208 206 205
105 157 144 154 107 122 122 146 174 185 180 168 170 187 209 215 232 162 155 124 26 343 325 313 279 292 311 316 312 309 307 311 298 289 269 255 24 24 15 343 341 356 224 196 206 192 193 203 208 208 209 215 213 204
139 138 114 107 126 168 203 188 202 202 211 194 196 207 223 228 169 165 152 338 332 322 318 318 318 329 302 300 293 299 295 302 316 321 333 342 349 74 15 9 14 40 12 321 266 236 212 199 209 212 213 215 216 204
159 159 112 140 171 204 195 196 195 40 310 303 309 266 240 233 236 242 275 282 280 275 277 277 285 290 295 307 302 297 252 263 262 273 311 336 360 340 331 332 325 339 333 285 265 274 227 215 203 198 210 203 207 209
149 166 133 161 214 201 69 7 281 243 246 259 260 270 282 308 297 251 257 258 260 258 258 265 270 260 254 277 271 283 296 120 193 260 299 301 296 288 291 291 294 300 299 282 279 279 272 237 223 221 216 215 216 218
159 179 155 174 176 91 281 285 316 261 225 232 251 247 255 259 278 271 13 335 279 257 254 264 268 280 339 324 292 262 293 337 313 321 321 305 298 299 311 312 300 298 298 288 272 267 265 256 253 251 243 231 224 222
112 107 83 225 195 191 82 280 321 302 229 253 246 295 268 251 244 271 112 29 5 1 345 321 305 304 332 335 22 52 19 329 341 331 321 308 297 305 307 304 299 288 295 294 286 284 281 280 279 276 267 262 255 242